Погода в Урицке

Погода в Урицке : погода сейчас, прогноз погоды и архив. Всё, что Вы хотите узнать о погоде в Урицке!

Поиск расширенной информации на нашем сайте:

Другие новости

Новости СМИ2

Главная страница сайта

Новости сайта

03.07.2017

Напоминаем, что на нашем специализированном сайте Метеоцентр.Азия вы можете получить высокодетализированные автоматические прогнозы погоды по пунктам России, СНГ и мира в авиационном формате (включающие направление и скорость ветра, видимость, явления погоды, количество и форму облачности, нижнюю и верхнюю границу облачности).

Рекомендуем: Ролмастер изготовление Рольставней forec.ru.

Погода в Урицке - сегодня

Время (UTC), дата Ветер
(°,м/с) 
Видим.   Явления Облачность Т
(°С)
Тd
(°С)
f(%) Тe
(°С)
Pmin
(гПа)
dP
(гПа)
Po
(мм)
O2
(г/м3)
Тmin Tmax R s Состояние
почвы
06 15.08.17 070 (В) 20000 м    3/0 верхняя 
[Ci sp]
+20.2 +13.4 65 +26  1021.2  0.5  747  278  +11.1         
09 15.08.17 080 (В) 20000 м    4/3 600 м верхняя 
[Cu med, cong|Ci sp]
+24.8 +16.4 60 +36  1020.6  -0.1  747  272           
12 15.08.17 080 (В) 20000 м    5/5 600 м 
[Cu med, cong]
+25.2 +16.3 58 +36  1020.2  -0.4  747  272           
15 15.08.17 тихо ()   20000 м    3/3 600 м верхняя 
[Cu med, cong|Ci sp]
+21.8 +13.7 60 +28  1020.7  0.2  747  276    +26.4       
18 15.08.17 070 (В) н/о    ясно 
+17.7 +10.6 63 +20  1021.7  0.6  747  281    +26.4       
21 15.08.17 060 (СВ) н/о    ясно 
+15 +9.6 70 +16  1021.4  740  281           
00 16.08.17 020 (С) 20000 м    ясно 
+11.7 +6.2 69 +13  1022  747  288           
03 16.08.17 070 (В) 20000 м    3/0 верхняя 
[Ci fib]
+17.2 +10.9 66 +20  1022.3  0.6  748  281           
06 16.08.17 060 (СВ) 20000 м    3/0 верхняя 
[Ci sp]
+21.6 +13.2 59 +27  1021.8  -0.2  748  277  +11.3         
09 16.08.17 050 (СВ) 20000 м    3/0 верхняя 
[Ci sp]
+23.3 +13.9 56 +30  1020.9  -0.7  747  275           
12 16.08.17 070 (В) 20000 м    ясно 
+24.4 +13.9 52 +31  1020.6  -0.2  747  273           
15 16.08.17 тихо ()   20000 м    3/0 верхняя 
[Ci sp]
+22.7 +13.2 55 +29  1020.8  747  275    +24.9       
18 16.08.17 тихо ()   н/о    ясно 
+17.5 +10.2 62 +19  1021.5  0.3  747  281    +24.9       
21 16.08.17 тихо ()   н/о    ясно 
+13.8 +8 68 +14  1022  0.1  747  285           
00 17.08.17 270 (З) 20000 м    5/5 600 м 
[Cu med, cong]
+11.4 +6.1 70 +13  1022.6  0.3  747  288           
03 17.08.17 320 (СЗ) 20000 м    6/6 600 м 
[Cu med, cong]
+15 +8.8 66 +16  1022.6  0.4  748  284           
06 17.08.17 330 (СЗ) 20000 м    6/6 600 м 
[Cu med, cong]
+21.6 +13.4 60 +28  1022.5  0.5  748  277  +11.2         
09 17.08.17 320 (СЗ) 20000 м    6/6 600 м 
[Cu med, cong]
+23 +13.7 56 +30  1021.9  -0.4  748  275           
12 17.08.17 340 (С) 20000 м    4/4 1000 м 
[Cu med, cong]
+23.3 +13.1 53 +29  1021.6  -0.3  748  275           
15 17.08.17 010 (С) 20000 м    3/0 верхняя 
[Ci sp]
+20.2 +11.1 56 +23  1022.5  0.6  748  279    +24       
18 17.08.17 330 (СЗ) н/о    ясно 
+13.6 +6.8 63 +14  1023.9  0.7  749  286    +24       
21 17.08.17 340 (С) н/о    3/0 верхняя 
[Ci sp]
+12.3 +6.7 69 +14  1024.2  0.1  749  288           
00 18.08.17 350 (С) 20000 м    3/3 600 м 
[Cu med, cong]
+11.8 +6.5 70 +12  1024.5  0.3  749  288           
03 18.08.17 340 (С) 20000 м    ясно 
+14 +7.6 65 +14  1025.4  1.1  750  286           
06 18.08.17 360 (С) 20000 м    ясно 
+18.8 +11.5 63 +22  1025.4  0.4  750  281  +11.6         
Время (UTC), дата Ветер
(°,м/с) 
Видим.   Явления Облачность Т
(°С)
Тd
(°С)
f(%) Тe
(°С)
Pmin
(гПа)
dP
(гПа)
Po
(мм)
O2
(г/м3)
Тmin Tmax R s Состояние
почвы

Для получения пояснительной информации подведите курсор к названию столбца.

ПОГОДА в Урицке - архив

Всё, что Вы хотите узнать о погоде в Урицке - удобно и подробно!

Выберите нужную дату (начиная с 1 января 2015* года) и нажмите кнопку "Найти".
Будут отображены архивные сводки погоды по пункту Урицк, начиная с указанной даты.


Отображать данные в формате CSV (для использования в таблицах Excel)


Внимание! Наш архив погоды предназначен исключительно для личного некоммерческого использования в познавательных целях. Если Вам необходимы официальные справки о состоянии погоды (для производственных, юридических, коммерческих и т.п. целей), обращайтесь в органы Росгидромета.

*Примечание: данная дата относится к архиву по метеостанциям СССР (Россия, СНГ, Балтия).
Архив по метеостанциям Зарубежной Европы и Азии (кроме Китая) хранится 10 дней, по другим регионам земного шара (Китай, Африка, Америка, Австралия, Океания) - 1 день.

Урицк - район местоположения метеостанции


Название, широта, долгота, высота метеостанции:
Урицк 53.3°ш. 65.6°д. 216 м над ур. моря [Казахстан]

Дополнительная информация

В oтличие oт бoльшинства пoгoдных сайтoв мы публикуем пoдрoбную метеoинфoрмацию в детальнoм прoфессиoнальнoм фoрмате.

Характеристики температуры и влажнoсти вoздуха измеряются на высoте 2 м в тени вдали oт зданий и деревьев.
Скoрoсть ветра измеряется на высoте 10 м (на урoвне рoста челoвека скoрoсть ветра ниже в 1.5-2 раза). Если метеoстанция нахoдится в гoрoде или в лесу, тo скoрoсть ветра занижена на 2-4 м/с пo сравнению с oткрытым местoм. Скoрoсть ветра над акватoриями крупных рек и oзёр, а также на вершинах хoлмoв на 2-5 м/с выше, чем в oбычных услoвиях.
Атмoсфернoе давление в разных тoчках местнoсти мoжет значительнo oтличаться oт давления на метеoстанции, в зависимoсти oт услoвий рельефа (при пoдъёме на 10 м давление пoнижается примернo на 1 мм рт.ст.).